Theta_e
351 352 355 357 356 354 354 354 354 353 353 351 350 350 349 349 349 348 349 349 350 350 350 351 351 351 351 351 351 351 351 351 351 351 351 352 352 353 352 352 352 352 351 352 353 352 352 352 351 351 349 350 349 349 350 349 348 348 347 346 345 346 345 345 345 345 344 345 345 344 342 342 343 342 342 341 340 341 340 341 341 339 340 341 343
350 354 355 355 355 354 354 354 354 353 353 353 350 349 349 349 349 348 349 349 349 350 350 350 350 351 351 351 351 351 351 351 351 351 351 352 352 352 352 352 351 352 352 352 353 352 352 351 350 350 349 348 349 350 349 349 348 347 346 345 345 344 344 344 343 344 344 343 341 338 337 338 339 339 339 339 338 339 339 340 340 338 339 340 340
352 354 354 355 354 354 354 354 354 352 352 352 350 349 349 348 348 349 348 349 349 349 350 350 350 351 351 351 351 351 351 351 351 351 352 352 352 352 352 352 351 351 351 351 352 351 351 350 350 351 350 349 349 350 349 348 348 346 344 343 343 343 343 342 342 342 340 339 339 339 340 340 340 339 339 341 340 339 340 339 339 339 336 338 338
351 353 353 353 355 354 353 354 353 353 353 352 350 349 348 348 349 349 349 349 349 349 349 350 350 350 351 351 351 351 351 351 351 352 352 352 352 353 352 352 351 352 352 351 351 351 351 351 350 350 349 349 349 348 347 347 345 343 343 343 342 340 339 339 339 340 340 340 340 339 339 336 338 340 339 337 336 336 337 337 337 338 338 338 339
351 352 352 351 351 353 354 354 353 352 352 351 350 350 348 348 349 348 348 348 349 349 350 350 350 351 351 352 352 352 352 352 352 352 352 352 352 352 351 352 352 352 352 352 351 351 351 351 350 349 349 350 349 349 347 347 345 343 342 342 342 341 341 341 340 340 340 341 341 338 334 336 339 341 339 337 338 339 340 339 339 339 339 337 336
352 352 351 351 351 352 354 354 353 353 351 351 351 350 350 349 349 348 348 348 349 349 349 350 350 351 351 352 352 352 353 352 352 352 352 352 353 352 351 352 351 351 351 352 351 351 351 350 349 349 349 350 350 348 348 347 347 345 344 344 345 344 340 341 341 341 342 343 341 338 337 337 339 337 339 338 338 340 339 337 338 338 338 336 340
352 351 351 351 351 351 354 353 353 353 352 351 351 350 348 349 349 348 348 349 349 349 349 350 350 351 351 352 352 352 352 352 352 352 352 352 352 352 352 352 352 351 351 351 350 351 350 350 350 350 349 350 349 348 347 347 346 346 345 345 345 345 343 341 342 343 343 339 337 338 338 338 338 337 341 338 336 335 336 336 336 337 337 338 338
352 351 351 351 350 351 353 353 353 352 352 351 350 350 349 350 349 348 348 349 349 349 350 350 350 350 351 352 352 352 353 353 352 353 352 352 352 352 352 352 352 351 351 351 350 350 349 349 350 351 349 349 348 347 345 344 344 344 344 343 342 343 343 341 343 343 343 337 339 340 340 340 339 339 338 341 340 340 340 339 338 337 338 338 338
350 351 352 351 350 353 353 353 353 353 352 351 351 351 349 349 349 348 348 348 349 350 349 349 350 350 351 352 352 352 352 353 352 352 352 351 351 351 351 351 351 350 350 349 349 349 349 349 349 348 348 348 347 345 344 344 343 343 344 344 344 345 343 343 343 342 339 339 340 340 339 336 336 338 342 342 341 341 342 341 339 338 338 337 336
350 351 351 350 350 352 353 353 353 352 352 351 350 350 349 349 349 349 348 348 349 349 349 350 350 352 352 352 352 352 352 352 352 352 351 351 351 350 350 350 350 350 350 350 348 348 348 348 346 346 346 345 345 344 344 343 343 344 345 345 345 345 344 343 343 342 338 339 339 340 340 340 335 333 339 341 341 344 343 342 342 341 341 341 340
350 350 351 350 350 353 353 353 353 352 351 351 350 350 349 349 349 349 348 349 349 349 350 350 352 352 353 352 352 352 352 352 351 351 351 351 351 351 350 350 350 350 349 350 349 349 346 346 345 346 345 344 343 344 344 344 344 345 346 348 348 345 343 343 340 336 337 337 337 339 341 342 339 340 343 344 344 343 342 342 342 342 341 341 341
349 350 351 350 354 352 353 353 352 351 351 350 350 350 349 349 348 349 349 349 349 349 351 352 352 352 353 352 352 352 352 351 351 351 350 351 350 350 350 349 349 349 349 349 348 347 346 344 344 345 344 344 343 343 344 344 345 345 345 346 345 344 343 341 335 335 336 337 338 338 338 339 338 338 342 342 342 342 342 341 341 340 340 340 339
349 350 350 350 350 353 353 352 352 352 351 351 350 349 348 348 348 348 349 349 350 350 352 351 352 352 352 352 352 351 351 351 350 350 350 349 349 349 349 349 349 348 348 347 345 345 345 345 344 345 344 344 344 344 343 344 345 344 344 343 343 343 342 340 335 335 335 335 336 336 336 338 340 341 341 341 340 340 340 340 339 338 338 337 337
348 349 350 349 349 353 353 352 351 351 350 350 349 348 348 348 348 348 349 350 350 351 352 352 352 352 352 352 351 350 350 350 350 350 349 349 349 348 347 348 347 347 346 345 345 345 344 344 344 344 345 345 345 343 343 343 345 343 343 343 343 342 342 340 338 335 335 335 337 335 337 340 340 341 340 340 340 340 338 338 338 337 336 335 334
347 349 349 348 349 349 353 352 351 351 350 349 349 348 347 348 349 349 350 350 350 351 351 352 352 352 351 351 351 350 350 350 350 349 348 348 347 347 347 347 347 346 345 344 344 344 343 343 343 343 343 344 344 343 342 343 345 343 342 343 342 341 340 335 335 334 334 335 336 335 335 337 342 340 339 339 339 338 337 336 335 335 335 333 333
349 348 349 348 349 350 350 351 350 350 350 348 348 347 347 348 349 349 349 350 350 351 351 351 351 351 351 351 350 350 350 349 348 347 347 347 347 347 346 346 346 345 345 345 345 343 343 343 343 343 343 344 343 342 343 344 344 343 342 341 341 340 339 336 333 331 332 333 335 336 335 340 340 338 338 337 336 333 334 334 334 334 334 334 334
349 349 348 348 348 349 349 349 350 350 348 348 347 347 348 348 349 349 349 350 350 350 351 351 351 351 351 351 350 350 349 349 348 347 347 347 347 346 346 346 345 345 346 345 344 343 343 343 343 343 343 343 343 342 343 345 345 344 341 340 340 340 340 336 331 331 332 335 334 332 334 336 337 338 337 337 335 334 334 335 335 333 333 334 335
348 348 346 347 346 347 346 346 347 346 345 346 347 347 348 348 348 348 349 349 350 350 351 351 350 350 350 350 349 349 349 348 348 347 347 346 346 346 346 346 345 345 345 345 344 343 343 343 343 343 343 342 342 342 344 345 346 345 342 341 341 340 340 337 331 333 335 336 333 336 335 339 340 337 336 336 336 336 335 335 334 335 335 335 334
346 346 346 345 344 344 344 344 344 343 341 341 342 345 347 348 347 348 348 349 349 350 350 350 350 350 350 349 349 349 349 348 347 347 347 346 346 346 346 346 345 344 344 344 344 343 343 343 343 343 343 342 342 343 344 345 345 344 342 341 341 340 339 335 333 333 334 333 332 332 336 339 339 336 336 336 334 334 335 334 334 336 336 336 335
344 344 343 344 344 343 342 341 342 342 340 339 340 342 346 347 346 348 348 349 349 349 350 350 350 350 350 349 349 349 348 347 348 347 346 347 346 345 346 345 345 345 345 345 344 343 343 343 343 343 342 342 343 343 343 344 344 344 343 342 342 340 333 332 332 330 331 334 335 333 338 338 336 336 335 334 335 335 335 334 335 334 333 332 333
342 342 343 343 343 342 339 339 340 341 340 339 339 340 344 347 346 347 347 348 348 349 349 349 348 348 348 348 346 342 341 342 343 344 348 346 346 345 346 345 345 344 345 345 344 344 343 343 343 343 342 343 341 342 343 343 343 343 342 342 341 331 330 331 330 333 333 337 337 332 336 335 335 335 334 336 334 334 334 332 332 331 330 330 331
339 340 342 343 342 341 339 338 338 339 339 340 340 341 343 345 339 340 341 345 347 348 346 345 348 343 348 344 343 344 338 338 342 347 345 346 345 346 344 345 345 345 344 344 344 344 344 343 343 343 343 340 335 328 334 344 343 343 342 339 330 329 330 330 331 332 335 334 334 336 336 336 335 334 336 335 334 333 332 331 332 331 331 332 331
337 338 339 341 342 341 341 339 338 338 339 338 339 338 338 338 336 337 341 346 346 345 342 342 338 340 341 341 340 338 337 338 338 344 344 347 346 346 346 345 344 345 344 344 344 344 344 344 343 343 340 336 328 327 326 327 337 343 341 332 329 329 329 330 331 333 332 333 331 337 336 336 335 334 334 333 334 333 330 331 331 330 332 330 328
337 338 338 341 342 341 340 339 339 339 339 338 338 338 337 337 337 337 339 340 340 341 339 338 338 338 338 337 336 337 334 331 345 347 348 340 338 345 346 345 344 345 343 344 345 345 344 344 343 342 336 331 329 328 326 326 329 331 329 329 329 329 329 330 331 331 331 335 330 338 336 335 334 335 334 333 332 331 331 332 331 331 329 328 329
337 339 339 338 340 340 340 339 340 341 341 342 342 339 337 336 336 337 339 342 340 337 337 335 335 335 335 335 335 335 332 331 331 335 339 335 333 334 337 336 335 335 343 332 333 334 335 330 332 334 330 331 329 328 328 328 330 331 329 329 329 329 329 331 331 331 331 334 334 338 337 336 335 335 334 334 332 331 331 332 332 329 328 329 329
338 336 337 338 339 339 339 340 341 341 341 342 341 342 339 336 336 337 338 341 339 336 335 334 333 334 333 334 337 331 331 330 328 330 332 332 332 332 333 333 333 334 340 334 332 332 333 332 331 331 331 333 331 329 332 331 330 330 330 329 329 329 329 330 330 331 331 332 335 338 336 336 336 335 335 334 332 331 333 331 332 330 328 329 329
335 335 337 338 339 338 337 339 340 340 341 342 341 341 337 335 335 337 339 338 336 336 336 333 332 332 333 337 332 329 329 328 329 330 330 332 333 332 333 332 333 333 337 334 332 332 332 334 332 331 329 333 331 331 329 329 330 330 330 329 329 329 329 329 330 330 330 331 334 338 336 337 337 335 335 334 333 331 331 331 331 330 329 329 329
335 335 337 338 338 337 337 338 339 341 341 341 341 340 337 335 337 343 340 341 337 334 333 332 334 333 334 336 335 330 330 331 331 331 331 331 333 333 332 332 332 332 333 335 334 333 333 334 333 332 332 332 332 332 330 330 330 331 331 330 329 329 329 329 329 329 329 330 332 337 337 339 337 336 335 335 334 332 331 333 332 332 329 329 329
334 335 337 337 337 338 337 337 340 341 340 340 339 338 338 336 338 338 337 342 333 332 332 333 333 335 335 336 337 330 330 330 330 331 331 331 332 333 333 333 332 332 332 333 333 331 331 333 334 334 333 333 332 332 332 331 331 331 331 331 329 328 328 328 329 329 329 329 331 335 338 337 338 338 336 335 334 333 332 334 335 333 331 329 329
335 335 336 337 337 338 337 336 339 340 339 338 336 337 337 337 336 335 334 340 332 332 333 332 332 334 334 335 336 331 331 331 330 330 331 332 332 332 333 332 332 332 331 332 333 331 331 331 333 334 335 334 334 334 334 331 331 332 330 331 329 329 329 328 328 328 328 329 330 332 338 338 338 339 338 335 335 334 333 331 330 332 329 330 330
336 335 336 337 337 336 335 336 339 340 338 337 335 336 337 337 337 333 333 333 334 335 333 331 332 332 333 334 335 336 332 331 330 330 330 330 331 331 331 332 333 333 332 331 331 332 330 331 332 334 335 336 336 335 334 333 330 330 331 331 330 329 328 329 329 329 328 329 330 331 335 338 339 339 337 337 335 334 333 332 331 331 331 331 330
335 335 336 338 336 335 336 336 337 339 338 336 337 335 335 336 335 333 333 333 334 332 332 333 335 333 335 333 334 334 337 332 332 331 332 331 331 331 331 332 333 334 333 332 331 330 330 330 332 334 335 336 336 335 334 333 330 328 329 330 330 329 328 328 328 328 329 329 329 330 332 336 339 337 336 337 338 336 333 333 332 332 332 331 330
336 337 337 338 336 336 336 336 338 338 336 337 336 334 332 334 335 333 336 337 334 333 331 332 333 333 334 334 334 335 336 334 332 333 336 336 336 335 334 333 333 334 334 333 333 332 331 331 330 332 332 334 334 333 332 329 329 328 329 329 330 329 328 328 328 328 328 329 329 330 331 333 337 338 337 336 337 336 334 333 334 332 332 333 331
336 337 338 337 338 338 338 338 339 338 337 338 338 336 335 334 333 332 337 336 333 333 333 332 334 335 335 335 336 337 338 336 334 332 333 335 336 336 335 335 335 334 334 334 333 332 331 329 329 330 333 332 330 330 330 330 330 329 328 329 329 329 328 328 328 328 329 329 329 329 330 331 334 335 336 337 336 336 337 336 333 333 332 333 333
337 337 336 337 338 338 338 337 338 338 339 338 338 337 338 338 338 335 337 339 338 335 332 332 333 334 335 336 337 337 338 338 337 334 332 332 333 334 334 335 335 334 333 333 333 332 331 330 331 329 328 328 329 330 330 330 329 329 329 329 328 329 328 328 329 328 328 329 329 329 330 330 331 332 334 335 337 336 336 338 334 334 332 333 335
337 337 337 337 337 338 339 337 338 338 338 338 337 338 338 338 338 339 337 339 339 337 334 332 332 334 335 336 336 337 338 338 338 338 336 336 335 335 335 334 334 334 333 332 333 332 331 330 330 329 329 328 327 328 329 328 328 329 328 329 329 330 328 328 328 328 328 329 328 329 329 330 330 330 333 332 333 334 336 337 336 336 333 333 335
337 337 337 337 336 338 338 337 337 337 337 338 336 337 337 337 337 339 338 338 337 336 333 331 331 333 334 335 336 337 338 338 339 339 338 338 338 337 337 334 332 333 333 332 332 332 331 330 330 330 328 328 327 327 327 327 328 328 328 328 329 330 328 328 328 329 329 328 328 328 329 329 330 333 334 331 331 331 335 338 336 336 335 335 335
338 338 338 337 336 336 337 337 337 336 336 336 336 336 337 338 338 338 340 337 336 334 333 332 332 332 331 333 335 337 338 337 337 338 338 338 338 336 334 333 332 332 332 332 332 331 331 330 330 329 328 328 328 327 327 327 327 327 327 328 329 329 329 329 328 331 329 328 328 328 328 329 330 331 332 330 330 331 332 336 336 336 336 333 333
337 338 338 337 336 335 336 337 335 335 335 337 338 336 336 335 335 335 336 335 334 333 332 331 331 331 330 330 331 334 337 337 336 337 337 337 337 336 334 333 333 334 333 332 332 331 331 330 329 330 330 329 328 328 328 328 326 326 326 327 328 329 328 329 329 329 329 328 328 329 329 328 329 329 331 330 330 330 330 332 335 335 335 335 334
337 337 336 336 336 335 335 334 333 334 336 336 336 333 331 332 331 329 328 328 329 332 332 331 331 331 332 332 331 330 332 335 334 334 336 337 336 335 334 334 333 334 333 332 331 331 330 329 329 329 329 329 330 329 328 327 326 324 326 326 327 327 328 328 328 328 329 328 328 330 328 328 328 328 329 330 329 329 329 330 332 332 333 334 334
335 335 334 333 333 332 330 328 330 333 332 332 332 330 328 327 327 326 327 327 328 330 331 330 330 330 331 331 332 331 330 332 335 334 334 336 337 337 336 335 333 333 333 333 333 332 331 331 330 330 329 328 327 327 327 327 326 324 324 325 326 326 329 330 327 327 328 329 329 328 329 328 328 328 328 330 329 328 328 329 330 330 331 332 333
331 331 331 331 331 330 329 329 330 331 332 333 332 331 328 330 326 326 326 327 328 328 330 331 332 332 332 331 331 332 332 333 335 334 337 336 336 337 337 336 336 334 334 334 334 334 333 331 330 328 330 329 327 326 327 327 323 322 322 321 322 324 326 327 327 327 327 328 329 328 328 327 327 328 328 328 328 328 328 328 329 329 330 330 331
330 330 329 328 327 327 327 327 327 328 329 332 328 328 330 331 330 329 328 327 328 331 331 332 333 332 330 330 332 332 333 332 332 334 335 335 336 336 336 337 337 336 334 334 334 333 332 331 330 328 327 328 328 328 328 328 324 322 322 321 319 318 320 323 325 326 327 328 328 328 328 328 327 328 328 328 328 328 328 328 327 328 329 330 330
327 326 325 324 324 324 324 325 326 326 326 329 330 330 332 331 330 330 329 331 330 332 331 331 330 331 331 331 332 331 332 332 333 333 334 334 334 335 335 335 336 336 335 333 333 332 332 330 330 329 329 325 326 327 329 328 327 325 319 318 318 316 314 317 319 323 326 327 327 327 329 328 329 328 328 326 327 328 328 328 327 327 328 330 330
323 323 322 322 322 321 322 323 324 324 324 326 326 327 328 327 327 327 328 327 328 329 329 328 329 330 331 331 332 333 333 334 333 333 334 333 333 333 333 334 334 335 335 333 331 332 333 332 331 329 328 326 325 327 327 328 328 329 325 319 316 314 315 318 318 320 323 324 325 326 328 329 328 328 327 326 328 328 327 327 327 327 328 329 330
321 321 321 321 321 321 321 322 323 323 324 325 325 325 324 322 322 322 322 322 322 324 325 325 327 328 329 331 333 333 334 335 335 335 334 334 332 332 332 333 333 333 333 332 331 332 332 331 332 330 329 329 328 327 326 328 328 328 328 327 325 319 317 319 319 315 320 324 324 326 327 328 329 328 328 327 326 326 327 327 328 327 327 328 329
320 321 321 320 320 320 320 321 322 323 324 325 325 324 322 322 322 322 322 322 321 323 327 327 327 328 329 329 330 331 332 332 333 333 333 333 331 330 330 330 330 329 332 331 331 330 330 331 332 331 331 331 330 326 325 327 327 327 328 327 327 325 324 319 316 319 315 319 324 324 326 328 329 328 328 328 328 327 327 328 327 327 327 328 329
318 319 319 319 319 318 319 320 322 323 324 324 324 325 322 322 322 322 323 323 323 323 324 325 326 327 325 326 327 328 329 330 330 330 331 331 332 331 329 327 327 328 331 331 330 331 330 331 331 332 332 331 329 327 327 328 325 325 326 325 325 326 326 324 323 319 317 314 318 324 326 327 328 328 329 330 329 328 327 327 327 327 327 327 328
318 319 319 319 319 318 318 318 318 319 320 322 322 322 323 322 321 321 321 322 323 323 323 323 322 323 322 323 324 325 326 327 328 328 328 329 330 330 329 328 328 328 330 330 330 330 330 329 329 329 329 330 330 330 328 327 327 325 325 324 325 324 324 324 324 323 318 316 316 318 319 325 327 327 328 329 330 330 328 328 328 328 327 327 327
318 320 320 319 319 318 318 317 316 317 318 318 319 320 321 321 320 319 319 319 320 320 320 319 319 320 319 321 322 323 324 325 325 326 326 327 328 329 328 328 328 328 330 329 329 329 329 328 328 328 329 328 329 330 328 329 329 329 327 325 322 322 322 321 321 321 321 321 316 318 319 319 319 323 328 328 328 329 330 329 328 329 328 328 328
317 317 317 317 317 317 317 315 315 315 315 315 316 316 318 319 319 319 318 317 318 318 317 317 318 318 318 318 319 320 322 323 324 324 325 325 327 328 328 327 328 328 329 328 328 329 329 329 329 329 328 328 328 329 329 329 328 327 325 325 323 323 321 319 320 321 320 318 318 318 319 321 321 321 325 328 328 329 330 330 329 328 329 329 329
Wind_Speed
7 11 9 11 11 13 17 18 18 18 17 16 17 17 17 17 16 16 16 16 15 15 16 17 18 17 17 17 16 15 15 14 14 14 13 13 14 13 13 13 14 14 14 16 16 17 17 16 16 16 16 16 16 17 17 16 16 16 16 15 15 15 16 16 16 16 15 16 16 15 13 13 14 13 13 13 12 12 12 12 9 6 6 11 14
11 10 9 9 11 13 17 18 18 18 17 16 16 16 16 16 16 16 15 15 15 16 16 15 16 16 16 16 16 15 14 14 14 13 13 13 13 14 13 14 14 14 14 15 16 16 16 17 16 16 15 16 17 17 17 16 15 16 16 15 15 15 14 14 15 15 15 15 14 14 13 12 13 12 12 12 11 12 11 12 13 6 5 13 13
9 9 8 9 14 15 17 18 18 18 17 16 16 16 17 16 16 15 15 15 15 15 15 14 15 15 16 15 15 14 14 13 13 13 13 13 13 13 13 13 14 14 14 15 16 16 16 16 16 16 16 16 16 16 16 16 15 15 15 15 15 15 14 14 14 13 13 13 13 12 13 13 12 12 13 12 12 12 12 12 12 10 8 12 11
11 9 8 11 14 14 17 17 18 18 17 16 16 16 16 16 15 14 14 14 14 14 14 14 13 14 14 14 14 14 13 13 13 13 12 13 13 13 13 13 14 14 14 15 15 16 16 16 16 16 16 16 16 16 16 15 15 15 15 15 16 15 15 14 14 13 13 12 11 8 4 5 8 13 13 11 11 11 11 11 12 12 14 13 14
11 10 9 8 8 12 16 18 17 18 17 16 16 16 15 16 15 15 14 13 14 14 13 13 14 14 14 14 14 14 14 12 11 12 12 12 12 13 13 13 14 14 14 14 14 15 16 16 16 16 16 16 16 15 15 15 15 15 15 16 16 15 14 13 13 12 11 11 10 6 5 6 6 13 13 12 12 13 12 12 13 13 13 13 13
10 9 9 8 7 9 16 17 18 18 17 17 16 16 15 15 15 15 14 14 14 13 13 12 12 11 12 13 13 13 13 13 12 12 11 11 10 12 13 14 14 14 14 13 14 15 15 16 16 15 15 16 15 15 14 13 13 14 15 16 15 13 12 12 13 12 12 12 10 5 5 5 4 7 13 13 12 12 12 12 12 12 12 12 13
12 8 8 8 7 9 15 17 18 18 17 17 17 16 15 15 15 15 14 13 13 13 12 12 12 11 12 13 13 13 13 13 12 12 11 10 11 11 14 14 14 14 14 13 13 14 15 15 16 16 15 15 15 14 13 13 12 11 10 8 6 9 10 13 12 13 12 7 5 5 5 5 5 4 12 12 11 12 11 10 11 11 12 12 11
8 7 8 7 6 11 16 17 18 17 17 17 16 16 16 15 14 14 14 14 13 12 12 12 11 12 12 12 13 13 13 13 13 13 13 12 12 12 14 14 14 14 14 12 13 14 14 14 15 15 14 14 13 13 12 11 10 8 6 5 5 8 11 12 13 12 11 6 5 5 5 5 4 3 10 11 11 11 12 11 10 11 11 11 11
9 8 8 7 7 16 15 16 17 18 17 17 17 16 16 15 14 14 14 13 13 11 12 11 11 11 11 12 13 13 13 13 14 14 13 13 13 13 13 14 14 13 13 13 12 12 14 14 14 13 13 12 12 12 11 10 8 6 5 5 6 9 12 12 13 12 7 5 5 5 5 4 4 5 9 10 10 10 11 9 9 11 11 11 10
9 8 7 6 7 15 14 15 16 17 17 17 16 16 16 15 14 14 14 14 13 12 11 11 11 11 12 12 13 13 13 13 14 14 14 14 14 13 13 13 13 13 13 12 12 12 13 13 13 12 12 12 12 11 10 9 8 7 7 6 7 13 14 13 12 9 6 6 6 5 5 6 4 3 9 10 9 10 8 8 5 6 7 8 9
9 7 6 6 8 13 13 14 16 16 16 16 15 15 15 14 13 13 13 12 12 12 11 11 11 11 12 12 13 14 13 13 13 13 13 13 12 12 12 12 11 11 12 12 12 12 12 12 12 12 12 12 11 10 10 9 9 10 11 11 14 16 14 13 10 5 6 7 6 5 6 7 5 5 9 11 12 12 12 12 13 12 12 12 12
9 7 6 6 12 12 12 13 16 15 16 16 15 15 15 14 13 13 12 12 12 12 11 11 10 12 12 13 13 13 12 12 12 13 13 12 12 11 11 11 11 11 11 12 12 12 12 12 12 11 11 11 11 11 10 11 10 12 13 14 15 15 14 12 6 5 6 7 7 5 5 4 3 6 11 11 11 11 11 11 11 11 11 11 11
9 7 6 5 6 10 11 13 15 14 15 15 14 14 14 14 13 12 11 8 9 10 11 11 11 10 11 13 13 13 13 12 11 11 11 11 11 10 9 10 10 10 10 10 11 11 12 11 11 10 11 11 11 11 11 12 11 13 14 13 14 14 13 12 6 6 6 6 6 5 5 4 5 9 8 9 8 8 9 9 9 9 9 9 9
9 7 6 5 5 12 12 11 12 13 14 13 13 11 12 12 12 11 9 7 8 9 8 10 10 11 11 11 12 12 12 11 11 11 11 11 10 9 9 9 9 9 9 10 11 11 11 10 10 9 9 10 11 11 12 12 12 13 14 13 13 13 13 9 6 5 5 6 5 6 6 5 4 8 9 9 7 7 7 7 8 8 7 7 7
10 8 6 5 5 6 14 11 10 12 11 10 10 10 11 10 9 8 8 9 8 8 8 10 11 11 11 12 12 12 11 11 11 10 10 10 9 9 9 9 9 9 9 9 9 10 10 9 9 9 8 9 11 11 11 12 11 13 13 12 13 12 11 6 4 4 5 4 4 5 5 2 5 7 7 7 7 7 6 5 6 6 6 6 7
7 8 8 6 5 6 6 12 12 12 11 11 10 10 11 9 9 9 8 8 8 7 8 9 9 11 10 9 10 10 11 11 10 10 9 9 9 9 9 8 8 8 8 8 8 9 9 9 8 8 8 8 9 10 11 11 11 13 13 12 12 12 11 7 5 4 4 4 4 4 4 3 8 7 7 7 5 4 5 5 5 5 5 6 6
8 8 8 7 6 6 6 6 9 14 12 11 11 11 10 9 10 9 8 7 7 8 8 8 8 10 9 8 9 10 10 10 10 10 9 9 8 8 8 7 7 7 7 7 7 8 8 8 7 8 9 8 8 9 10 10 10 14 13 12 12 12 12 9 5 5 4 4 3 4 4 3 6 6 7 8 6 5 5 5 5 5 4 5 5
7 8 8 8 7 6 6 5 7 7 6 9 12 12 11 10 9 9 8 7 6 7 8 8 8 9 10 10 10 11 10 10 10 9 8 8 8 7 7 6 6 6 6 6 6 7 7 8 7 8 8 8 8 10 9 9 10 14 14 13 12 12 11 9 6 5 5 4 4 3 3 4 7 6 7 7 7 7 6 5 4 4 4 4 5
7 8 8 8 7 8 7 7 7 6 6 5 4 8 12 11 10 9 8 7 6 8 10 9 9 8 10 9 10 10 10 10 9 9 8 7 7 6 6 5 4 5 5 5 5 6 6 7 7 7 8 8 9 10 9 9 10 14 15 14 13 12 12 6 5 5 5 4 4 4 3 4 3 6 7 7 5 5 5 5 4 5 5 6 6
6 7 7 7 8 8 6 6 7 7 5 5 5 5 10 12 11 10 10 9 8 9 8 9 9 9 9 9 9 7 7 6 9 7 8 7 6 4 5 4 4 4 4 4 5 4 5 7 7 7 7 8 10 10 10 10 11 13 14 14 14 12 6 4 5 5 5 4 4 3 3 4 5 6 6 5 6 5 5 4 4 4 4 4 4
5 7 6 7 7 8 7 6 6 7 6 5 5 6 8 12 10 12 11 10 9 9 8 9 8 7 6 7 7 5 4 3 3 3 7 4 5 4 5 4 3 3 3 3 4 4 5 6 7 7 7 9 10 9 9 10 11 11 13 13 12 6 5 5 5 4 4 4 5 4 6 5 4 4 4 6 4 5 5 3 2 1 2 2 3
8 7 7 7 7 7 7 6 6 7 6 5 4 4 4 7 4 4 4 6 7 7 5 3 5 3 6 6 5 4 4 3 3 4 2 2 2 5 3 3 3 3 2 2 3 3 4 5 6 7 8 10 8 5 4 7 11 11 11 11 6 5 5 5 5 4 4 4 5 4 8 6 5 4 6 4 4 4 3 3 2 2 2 3 3
7 7 7 7 6 6 6 6 6 6 6 4 3 2 3 4 3 3 3 5 4 4 3 3 4 4 4 4 4 3 3 2 1 2 2 2 1 3 3 2 1 2 2 1 2 2 3 4 5 7 8 8 4 3 4 3 3 10 10 7 5 5 5 5 4 4 4 4 4 5 7 6 5 3 2 3 3 4 3 3 4 2 4 2 2
6 6 7 6 6 5 6 5 6 5 5 4 3 4 3 4 4 3 4 3 4 4 4 4 4 4 4 4 3 3 3 2 3 3 1 2 2 2 2 2 1 1 0 2 3 2 2 4 6 6 5 4 3 3 3 3 3 4 4 4 4 4 5 5 4 4 4 4 4 6 7 6 6 6 5 2 1 3 4 3 3 4 3 3 2
5 6 5 7 7 6 5 4 5 5 5 4 4 4 3 4 4 4 4 3 4 4 4 3 3 3 4 3 3 2 2 2 2 2 3 2 2 3 3 3 3 2 5 2 3 3 4 3 3 3 2 3 3 3 3 4 3 4 4 4 4 4 4 3 4 4 4 4 4 6 8 7 8 5 5 4 4 4 2 4 3 3 3 2 3
6 7 7 6 7 6 4 4 5 4 4 3 3 4 4 4 4 4 4 3 4 4 4 4 4 4 3 2 3 3 2 2 2 2 2 1 0 1 2 2 2 2 3 2 2 2 2 2 2 3 1 3 3 2 2 3 4 3 3 4 4 4 4 3 3 3 4 4 4 7 8 8 8 5 6 4 3 3 6 3 5 4 4 3 4
5 5 5 5 6 5 5 5 5 4 5 3 3 3 3 4 4 3 4 3 3 4 3 3 3 4 3 2 2 2 2 2 2 2 1 1 0 1 1 1 1 0 1 1 2 2 2 2 2 3 2 1 3 3 3 2 3 4 4 4 4 4 4 4 4 3 3 3 4 8 9 9 8 8 6 7 6 4 3 2 3 5 6 5 5
5 6 4 5 6 5 5 5 5 5 4 4 4 3 3 3 3 4 3 4 4 3 3 3 3 3 3 2 2 2 2 1 0 1 0 0 1 1 2 2 2 2 1 0 1 2 2 2 2 3 3 2 3 4 3 2 2 2 4 3 4 4 4 4 4 4 4 4 4 7 11 9 8 9 8 8 7 5 6 5 5 6 6 5 5
7 6 5 4 5 4 4 4 5 5 4 4 3 3 3 3 3 3 3 4 3 3 3 3 3 3 3 3 3 3 1 1 1 1 1 2 1 1 1 2 2 3 1 1 1 2 2 2 3 3 2 3 2 3 3 3 3 3 4 4 4 4 4 4 4 5 4 4 4 5 10 9 9 9 8 8 6 5 6 7 9 8 7 5 5
7 7 7 5 4 5 4 4 5 4 4 4 3 3 3 3 2 3 3 3 3 3 4 3 3 3 2 3 2 2 3 3 3 2 2 4 3 2 2 2 3 2 0 3 2 2 3 2 2 3 3 3 3 2 4 3 4 4 4 5 5 6 5 5 5 5 4 4 4 4 8 9 9 7 7 8 7 8 8 3 5 7 5 5 6
7 7 6 4 4 5 3 3 5 5 4 4 4 3 3 3 3 2 2 2 3 3 3 3 3 3 2 2 2 2 2 2 3 3 2 2 2 3 3 3 4 3 2 3 2 3 3 3 4 4 3 3 3 2 3 2 4 4 5 5 5 5 5 4 4 4 5 5 4 4 5 11 8 9 7 6 8 8 7 7 7 7 7 7 7
6 6 4 4 5 5 5 4 4 5 5 5 4 3 2 2 2 2 2 2 2 2 2 2 2 1 2 2 2 2 3 2 2 2 2 1 1 1 2 3 4 3 2 2 3 3 3 4 4 4 4 2 2 3 3 3 3 2 3 4 3 4 5 5 5 5 5 5 5 4 4 5 9 10 9 8 8 7 8 8 9 8 8 8 8
4 5 5 6 6 5 5 5 4 5 5 5 4 2 1 1 2 2 2 2 2 2 1 2 1 1 1 2 2 2 2 2 2 2 2 1 2 2 2 3 3 4 3 3 3 3 3 3 3 3 3 1 2 3 1 2 2 2 1 2 3 4 4 4 5 5 5 5 5 5 5 4 4 8 9 10 8 8 9 8 10 9 9 9 9
6 4 5 6 5 4 4 4 4 5 5 5 4 2 2 1 1 1 2 2 1 1 1 1 1 1 1 1 1 2 2 1 2 2 1 2 3 4 5 4 2 2 3 3 4 3 4 3 4 2 2 1 1 2 2 3 3 1 2 2 3 4 4 5 5 5 5 5 5 5 5 4 4 5 5 10 10 8 8 7 10 11 10 10 11
5 6 6 6 6 5 5 4 5 3 4 4 4 3 2 2 1 0 1 0 1 1 1 0 1 1 0 1 1 2 2 2 2 2 3 2 3 3 4 5 4 2 2 3 4 3 2 3 3 5 4 2 3 4 4 5 4 4 4 3 4 3 4 5 5 5 6 5 5 5 4 4 4 5 4 4 7 10 8 8 11 11 11 11 12
8 7 6 6 6 5 5 5 4 4 3 4 3 3 2 1 1 1 0 0 2 2 2 1 1 1 1 1 2 2 3 3 3 2 3 3 3 3 4 2 4 4 2 2 2 3 3 3 3 4 6 4 2 4 3 5 5 5 3 2 2 2 3 3 4 4 4 4 5 5 5 5 5 5 5 5 5 5 8 8 10 9 11 12 13
7 8 7 7 7 6 7 6 5 4 3 3 3 2 3 2 1 1 1 1 2 2 2 1 0 1 1 1 2 2 3 3 4 4 4 4 4 4 4 1 1 3 2 2 2 2 3 5 5 3 3 4 3 5 5 4 5 5 3 4 3 2 3 3 4 3 2 5 5 4 5 6 5 7 5 5 5 5 6 9 11 9 10 10 11
7 7 6 6 6 5 5 5 3 3 4 4 3 2 3 3 2 2 2 2 2 1 0 1 2 2 1 2 2 3 3 3 3 3 3 3 2 2 3 3 1 0 1 1 2 2 2 2 5 2 4 3 3 5 8 4 2 4 4 4 2 3 4 4 4 3 4 5 5 6 6 5 5 5 5 5 5 5 4 7 12 10 11 10 9
6 7 7 7 6 6 4 3 4 4 4 5 4 3 4 4 3 3 1 0 0 0 1 1 3 2 2 2 3 3 3 3 2 3 3 3 3 3 4 3 3 2 1 1 1 2 0 2 4 5 1 4 5 6 7 6 5 6 5 4 3 4 3 3 3 4 5 5 5 5 3 5 5 5 6 5 5 5 6 5 5 5 7 12 10
7 7 8 7 7 6 5 5 4 4 4 4 3 3 3 3 2 3 2 1 1 2 3 3 2 3 2 2 2 2 2 2 2 2 2 3 2 2 3 3 2 2 2 2 1 1 1 3 4 4 4 2 4 5 5 4 4 5 5 6 5 3 3 3 4 5 5 5 5 4 5 4 5 5 6 5 5 5 5 5 5 6 6 8 12
8 8 7 7 7 6 7 6 4 4 4 3 3 2 1 2 1 1 1 2 2 2 2 2 1 1 1 1 1 1 1 1 1 1 1 3 2 1 2 2 2 3 3 3 3 2 2 2 2 3 3 3 2 3 3 3 3 2 2 4 4 3 4 4 4 4 6 6 5 6 5 5 6 6 6 5 5 6 5 6 6 6 6 5 7
8 9 9 8 8 9 8 6 5 6 5 4 3 3 2 2 1 1 1 2 3 4 5 5 3 1 0 0 0 0 1 0 1 0 1 1 3 3 3 3 2 3 4 4 3 3 3 3 2 3 2 4 3 3 3 3 1 3 3 3 2 3 6 6 6 5 6 5 6 7 6 6 7 6 1 2 5 6 6 5 5 6 6 6 6
10 9 8 10 9 8 7 7 6 6 5 5 4 3 2 1 1 2 1 2 2 3 3 3 4 4 4 3 1 1 1 2 1 1 1 2 2 3 4 4 4 4 4 4 4 3 3 3 3 3 5 2 4 2 3 5 3 2 2 2 3 2 2 3 5 7 7 7 6 8 8 8 9 7 6 7 6 6 6 6 6 7 6 6 6
8 9 8 9 7 7 7 8 7 6 6 5 5 4 4 4 3 3 3 4 4 3 3 4 5 5 7 4 5 4 3 3 2 1 0 1 2 3 4 4 4 4 3 4 4 4 4 3 3 4 4 6 3 2 3 5 5 2 4 3 1 0 6 4 3 4 7 8 7 8 7 8 8 7 7 9 9 6 6 6 7 7 6 7 6
8 8 8 7 6 8 7 7 7 7 6 6 6 4 4 5 4 4 4 3 3 6 7 7 6 5 5 6 6 5 4 4 3 2 2 2 1 0 1 2 3 3 3 3 4 4 5 5 5 4 3 3 5 3 2 5 6 6 5 1 2 2 5 3 3 5 3 4 7 8 8 9 9 8 8 9 6 6 6 7 7 7 7 6 6
8 6 6 7 7 7 7 6 7 7 8 7 6 7 7 6 7 7 6 6 7 6 7 5 6 7 6 4 7 6 5 5 5 4 4 3 3 2 1 2 3 3 2 3 4 4 4 4 3 3 4 5 5 6 4 4 6 6 7 7 5 6 3 1 4 5 1 6 5 6 9 9 8 8 8 7 8 7 6 7 7 8 7 7 6
6 5 6 7 8 7 6 6 7 6 6 6 7 7 8 6 7 6 5 5 5 4 2 3 4 4 5 7 6 6 7 7 6 7 6 5 4 3 2 2 3 3 4 4 4 5 4 4 4 4 5 5 6 6 7 5 4 6 7 8 7 5 5 3 5 2 7 2 5 5 6 7 8 9 9 9 9 8 7 7 8 8 8 7 6
4 7 7 7 9 7 8 8 8 8 6 7 9 7 6 5 5 5 5 5 5 4 4 4 4 4 6 6 6 6 6 6 7 8 7 7 6 5 5 4 4 4 3 5 5 5 5 5 5 5 6 6 5 6 5 5 6 3 6 9 9 9 9 8 8 8 7 7 7 2 4 5 6 7 10 10 9 9 10 9 9 8 8 7 7
7 8 7 7 7 7 8 9 9 8 7 7 8 7 6 5 5 4 5 4 4 4 3 4 5 5 6 6 7 6 6 7 7 8 8 7 6 6 5 5 5 5 4 4 5 5 6 6 6 4 4 5 4 5 5 6 6 7 5 6 7 8 7 8 8 7 6 6 9 9 7 2 6 7 7 10 9 9 9 10 9 8 5 7 9
7 9 8 7 7 8 9 10 9 7 7 8 8 8 7 5 6 6 6 5 4 4 4 6 5 5 7 7 6 6 6 6 7 8 8 8 7 6 6 6 6 6 5 5 5 6 6 5 6 5 5 5 5 5 7 6 6 7 7 6 5 4 6 7 7 7 7 9 10 7 6 7 7 6 7 9 11 10 9 8 10 7 9 8 8
7 9 9 8 6 8 8 10 7 7 8 8 9 8 8 7 6 6 7 6 5 5 6 7 6 7 7 6 6 5 5 6 5 6 8 8 7 7 7 7 5 5 5 6 5 5 5 5 5 6 6 6 5 7 7 7 6 6 6 6 7 7 6 7 7 7 7 6 8 10 9 8 9 8 6 10 9 11 10 9 9 8 9 9 8
Wind_Direction
147 132 131 138 142 135 122 118 118 116 114 112 111 112 113 114 115 114 115 113 112 112 114 114 114 114 114 116 116 116 116 115 115 112 109 109 108 107 105 106 104 102 105 105 105 105 109 106 102 100 99 100 99 93 91 87 86 84 81 78 73 72 72 74 82 84 84 80 77 78 79 83 80 77 78 79 82 79 77 72 62 57 63 67 66
146 132 132 139 142 138 124 121 120 119 116 114 114 115 115 114 115 116 117 117 116 117 117 117 116 116 117 118 120 119 118 117 117 115 113 111 110 109 107 106 106 106 105 106 106 105 104 104 104 101 102 102 96 94 92 91 89 89 86 83 79 74 74 75 75 75 74 75 76 77 81 83 84 86 91 89 86 85 77 70 65 52 63 72 72
128 130 134 140 147 139 126 124 123 120 118 116 117 116 116 116 117 118 118 119 118 118 118 117 119 119 119 121 122 121 119 119 119 118 116 113 111 110 109 108 108 108 108 105 105 104 105 104 102 102 102 99 98 95 94 93 92 90 88 85 84 81 78 75 75 76 77 79 82 83 87 91 93 93 83 81 82 80 79 80 80 73 82 83 79
137 131 136 147 147 141 128 126 124 122 119 119 118 117 117 117 117 118 120 120 121 119 118 119 120 119 121 124 125 124 122 122 121 119 117 115 112 112 112 109 108 106 106 106 107 107 106 103 100 99 97 96 95 96 99 98 95 93 92 89 86 85 83 80 79 80 81 77 60 41 27 62 91 89 85 86 91 94 95 90 89 87 79 75 75
140 139 143 140 145 141 129 128 125 122 122 121 119 118 118 119 120 122 122 123 121 120 120 120 120 119 120 122 120 119 121 121 121 120 118 117 117 116 114 112 109 108 107 106 107 110 107 102 101 100 99 98 98 96 98 99 99 98 97 97 94 91 88 87 83 80 73 59 52 38 32 51 62 85 95 95 87 86 82 81 81 80 81 79 79
143 144 141 139 147 145 132 128 127 124 125 123 121 120 120 121 122 124 124 125 125 123 123 122 118 117 119 117 117 118 120 122 122 120 115 114 112 114 113 110 110 108 107 107 109 109 106 103 102 100 96 95 95 98 99 100 99 98 103 101 87 76 87 90 88 76 64 53 44 33 34 47 78 97 93 88 90 80 80 85 83 79 80 85 76
144 142 140 141 145 146 135 132 129 128 126 125 123 123 124 124 123 126 127 129 128 126 123 120 114 112 116 114 115 116 117 117 116 113 110 109 108 114 113 109 107 106 105 104 102 105 109 105 104 98 95 93 94 96 97 100 105 105 112 113 96 80 87 96 85 76 63 56 45 43 52 55 46 66 94 94 92 90 89 88 87 89 89 86 84
137 138 141 141 142 145 138 133 131 130 129 128 127 127 126 124 124 128 130 131 130 126 123 119 116 118 116 114 114 113 113 113 112 102 97 100 110 107 108 110 107 106 103 101 98 98 95 93 92 92 93 92 92 94 97 99 104 109 115 117 113 105 100 98 92 82 72 63 57 56 47 35 37 79 100 101 96 95 91 91 84 82 85 85 82
140 140 139 138 144 144 140 134 133 133 131 130 130 129 127 126 127 130 131 132 130 127 124 119 121 120 117 115 113 111 113 110 110 109 107 109 108 107 106 105 104 102 100 93 90 89 90 90 87 90 93 93 91 92 92 92 90 90 98 122 138 119 113 104 95 84 70 60 57 57 53 45 41 53 87 89 90 92 89 86 90 90 87 91 93
137 137 144 144 148 145 140 137 134 132 131 131 129 129 128 130 131 133 132 132 131 128 124 124 123 121 119 116 113 113 112 111 112 112 111 111 109 107 106 107 108 106 103 97 93 90 91 90 90 91 91 91 91 89 87 81 78 89 102 119 141 123 117 108 97 89 92 73 49 51 75 59 19 11 95 91 92 89 91 93 88 90 82 88 97
132 141 138 140 148 142 139 135 131 130 131 129 128 128 132 135 135 133 133 133 132 129 127 127 125 123 120 118 116 114 111 111 112 111 110 109 107 105 106 106 107 107 102 99 93 89 89 88 88 89 93 94 94 90 83 74 75 94 92 95 116 121 115 106 95 93 89 90 75 59 79 65 52 59 92 95 88 88 87 85 82 80 80 78 77
133 135 141 144 148 138 132 130 130 130 130 129 129 133 138 137 134 132 133 133 132 131 130 128 128 126 124 120 118 115 113 114 114 111 110 107 108 108 108 106 107 102 97 92 93 95 95 92 93 95 98 99 96 90 81 74 80 101 100 102 109 112 109 103 97 92 94 96 98 75 64 56 53 95 89 88 91 81 78 73 74 71 67 67 71
137 142 142 145 127 130 126 130 130 130 131 132 135 138 138 136 134 132 131 131 130 130 130 126 125 124 122 121 119 118 116 112 110 107 109 108 104 105 106 108 103 102 99 97 99 97 94 93 96 100 101 100 95 89 79 73 83 106 109 110 111 111 109 103 94 93 92 99 99 95 78 61 75 90 92 88 86 82 78 78 74 69 66 68 68
138 137 133 112 119 132 125 126 127 131 134 135 136 134 134 134 133 130 124 117 125 122 120 124 126 125 121 121 120 115 112 108 105 105 106 102 99 105 110 107 103 97 92 91 92 92 92 93 99 101 96 94 92 88 79 76 86 112 116 114 114 111 108 101 96 94 95 97 99 105 100 99 103 99 91 88 84 89 81 77 75 73 70 70 64
133 127 108 107 124 130 126 122 123 129 128 126 123 127 130 128 119 105 114 125 129 114 126 127 125 124 123 116 114 114 109 105 101 105 104 104 104 102 103 101 98 91 86 83 84 87 91 95 100 100 96 93 92 87 83 82 93 115 119 118 117 114 108 97 93 88 87 79 87 96 95 33 118 104 105 105 97 88 85 83 77 75 70 71 72
116 113 113 108 118 121 122 128 128 123 123 123 122 127 127 116 114 119 116 116 116 110 109 117 120 123 118 111 112 110 106 101 103 103 103 103 105 102 99 100 94 90 86 85 82 83 86 94 100 99 93 88 88 90 86 86 100 120 124 120 118 117 114 107 96 85 82 80 76 79 84 109 106 109 101 93 103 109 99 98 90 81 88 80 78
114 116 111 108 101 104 113 118 123 123 126 125 127 124 107 108 118 113 102 109 119 128 124 121 121 119 115 105 108 107 101 99 100 101 101 102 101 103 100 95 96 91 83 80 81 80 82 87 93 96 94 90 86 84 82 86 105 126 127 124 122 122 121 115 107 107 104 97 76 67 76 79 115 105 103 111 112 105 94 94 99 102 93 98 94
120 114 117 111 99 93 91 85 105 110 120 130 131 126 118 116 116 107 110 111 115 121 125 117 112 120 121 116 113 108 105 101 99 100 98 98 98 102 102 98 96 88 83 75 73 74 78 80 81 85 90 90 84 77 73 81 113 134 132 129 128 128 126 118 111 117 109 96 85 76 65 97 102 118 115 115 112 115 115 104 100 103 105 103 102
110 112 108 109 101 97 97 106 107 101 101 100 116 134 129 119 117 122 124 130 121 128 128 122 119 119 125 125 118 115 111 107 105 103 104 102 105 100 108 107 99 96 84 77 67 66 70 76 70 71 78 80 78 76 69 79 115 134 133 133 133 131 126 117 119 119 111 109 109 98 110 101 137 140 128 115 118 120 118 118 108 101 103 104 97
109 103 103 105 108 110 109 111 112 112 115 118 126 136 141 138 142 140 143 141 138 130 127 136 130 130 133 133 125 108 103 106 113 114 112 109 104 112 108 112 106 94 88 73 60 55 58 64 65 61 68 71 75 78 81 89 110 128 133 135 137 127 117 119 121 119 126 124 120 126 142 132 157 142 132 128 123 116 114 112 115 115 99 87 83
115 109 112 115 115 117 120 119 123 130 130 133 138 143 156 153 153 152 154 149 142 136 136 142 142 139 123 101 82 68 65 71 78 105 113 113 127 121 120 119 115 108 85 78 62 47 49 54 58 60 59 66 70 74 92 103 111 121 133 138 128 118 130 125 129 135 129 133 132 157 154 159 172 159 124 121 129 121 114 120 132 95 101 111 103
130 126 121 122 125 128 132 130 130 135 139 137 144 148 153 149 137 139 145 153 148 140 133 129 117 85 103 85 77 73 67 61 61 79 70 105 128 137 132 123 138 117 97 69 71 46 39 45 49 52 57 64 67 56 52 112 128 128 128 119 110 130 131 135 138 145 137 138 149 175 158 170 180 179 138 147 145 124 139 158 133 152 103 99 103
135 132 134 136 136 134 136 136 139 142 134 136 135 123 113 109 118 112 127 146 144 114 97 95 65 86 81 79 75 70 70 60 23 117 119 121 162 162 145 150 130 142 127 104 46 40 36 40 42 55 56 63 62 60 79 53 115 144 132 125 129 133 132 134 139 144 151 157 157 194 167 159 168 198 113 133 132 146 172 170 140 108 118 119 116
140 136 135 129 136 141 139 143 142 138 137 137 106 103 109 111 106 97 92 96 86 101 95 90 82 85 93 92 82 88 75 54 17 28 80 42 357 359 181 140 62 23 339 28 359 5 11 26 38 51 60 66 68 71 74 66 87 80 110 129 128 136 142 151 150 152 157 172 174 202 169 170 173 197 147 159 134 130 168 170 144 147 144 142 133
136 130 124 135 140 140 142 140 136 142 138 144 136 125 112 102 97 98 97 88 98 98 99 93 94 89 90 92 106 98 74 55 33 27 59 35 24 18 21 33 15 17 27 28 14 8 23 355 7 27 43 86 84 71 70 84 95 120 129 137 130 132 144 151 155 157 172 183 187 206 174 183 192 208 147 185 177 179 172 152 139 127 114 125 142
137 142 143 139 142 142 145 140 141 136 140 125 119 148 122 112 107 116 106 105 116 109 96 98 94 96 95 105 108 89 74 63 42 40 64 64 46 26 32 39 34 3 16 2 354 16 5 4 345 352 0 96 114 115 109 113 124 133 142 146 146 150 155 164 167 173 181 191 200 198 181 190 208 190 199 167 182 214 177 168 146 148 153 169 140
147 147 144 141 142 144 144 142 139 134 131 117 120 109 113 118 114 114 115 107 109 110 105 109 117 119 115 125 114 92 67 57 48 43 51 30 5 335 328 18 73 51 348 31 348 344 349 341 327 325 332 144 125 127 119 118 146 149 158 165 166 163 168 169 178 183 197 206 216 205 194 201 197 200 179 184 180 200 210 182 155 152 178 171 157
137 152 150 142 145 149 144 142 138 137 128 122 122 112 107 106 135 151 116 146 122 112 114 128 127 120 139 144 108 108 124 102 54 59 40 50 220 229 234 247 269 251 223 91 326 322 326 320 315 311 324 289 134 138 143 172 204 155 161 174 180 174 181 178 177 189 194 209 220 220 201 202 192 208 190 202 196 177 222 181 168 164 176 184 167
151 156 153 134 138 136 136 139 145 144 122 113 118 101 102 102 108 105 135 154 113 133 141 129 120 125 129 146 139 132 122 157 234 226 176 240 250 277 264 255 261 262 144 286 211 282 304 310 314 310 306 311 321 124 134 149 191 191 176 182 191 195 186 182 190 194 195 201 221 250 209 206 200 217 209 207 209 170 211 188 173 170 180 183 170
154 154 154 149 130 130 139 140 138 129 120 109 97 109 117 118 113 126 180 143 144 138 137 124 122 123 125 146 153 160 180 192 222 237 216 265 278 297 307 306 291 299 91 270 216 217 256 294 300 301 304 317 330 2 129 160 187 201 196 184 193 197 194 189 189 193 189 192 219 253 232 210 211 227 213 208 203 190 199 232 198 182 188 185 170
148 153 151 138 135 129 129 119 122 129 110 113 111 106 120 128 132 138 146 124 152 133 117 117 111 110 129 141 149 170 173 185 195 212 215 244 273 290 293 315 296 291 230 251 238 230 233 237 256 274 288 299 318 311 325 168 183 203 208 199 192 184 197 195 192 183 188 194 197 217 249 218 217 221 197 209 217 213 194 191 190 190 186 191 184
157 159 150 138 123 127 125 104 101 112 112 108 119 119 133 148 139 115 115 106 127 99 113 113 121 130 144 157 184 190 191 193 199 203 217 221 230 244 275 290 284 301 239 258 277 253 237 247 251 250 258 291 317 319 283 297 283 222 193 212 178 181 193 191 190 191 192 191 193 206 228 237 218 213 198 209 235 215 203 194 189 203 195 192 188
135 149 144 148 135 127 116 99 85 94 92 110 107 116 95 91 113 110 119 127 113 109 118 136 138 156 175 195 204 203 217 204 205 213 240 261 296 275 222 218 254 289 301 268 262 276 259 265 269 280 300 6 353 325 354 49 285 310 204 212 169 195 190 187 190 184 196 197 193 194 207 224 230 216 207 213 224 201 209 213 181 199 204 183 195
141 136 143 151 125 123 116 106 98 98 103 104 112 95 119 123 110 89 125 120 124 131 201 165 168 160 185 223 235 258 265 241 222 249 231 266 293 299 302 295 251 238 261 285 292 251 263 268 273 310 279 124 219 262 331 304 279 259 244 232 203 204 185 194 194 192 186 196 194 196 204 208 218 216 214 215 214 210 227 223 203 194 200 193 202
139 143 155 143 124 114 121 107 122 117 131 125 136 149 148 169 171 107 96 129 258 227 264 230 164 232 195 262 278 280 284 277 261 260 296 320 310 313 310 307 324 284 224 235 257 287 264 278 312 283 272 241 186 219 217 237 250 253 231 191 217 205 199 203 196 195 191 191 187 200 200 208 213 211 213 210 212 216 222 234 211 205 195 201 209
138 131 126 126 131 122 117 116 120 136 122 128 114 145 163 151 101 226 134 79 276 288 288 260 189 154 211 226 238 257 258 245 270 257 283 288 291 298 293 342 336 321 284 261 239 272 271 263 236 254 275 273 261 267 233 233 236 247 233 207 230 213 228 236 222 214 207 191 203 199 200 205 210 212 208 204 205 212 219 221 213 209 203 202 211
119 123 127 128 129 130 123 134 147 142 118 109 99 102 97 101 103 10 208 255 249 261 265 276 331 233 206 232 233 244 246 238 231 238 255 264 258 264 290 86 295 299 303 287 257 251 250 274 268 204 217 267 316 323 291 260 243 247 239 218 200 172 212 211 223 219 177 211 214 210 205 210 213 212 207 198 200 199 218 216 206 208 209 209 213
122 114 115 116 108 99 110 127 120 94 84 89 105 119 118 129 141 174 215 191 223 176 38 340 298 276 237 244 234 237 238 214 226 232 245 256 288 304 324 326 307 148 264 305 263 291 276 252 281 274 198 241 212 247 273 276 326 303 282 256 202 183 196 213 211 210 196 219 219 214 212 208 211 219 209 200 194 199 201 216 207 206 208 212 223
117 110 106 96 92 99 102 106 101 83 86 102 101 85 86 80 72 55 57 82 101 130 172 213 231 235 258 252 230 234 238 222 215 216 231 254 267 261 281 299 334 355 331 277 268 263 342 286 267 288 212 194 225 225 231 230 204 248 263 279 259 217 185 182 193 212 208 213 221 230 220 217 211 214 216 202 196 193 198 208 209 202 209 210 216
110 102 100 102 100 86 83 78 74 98 107 101 109 71 54 56 39 5 8 352 344 283 248 233 207 203 208 214 243 252 252 254 225 218 235 240 222 212 237 256 258 269 304 312 266 252 263 236 248 254 283 249 208 223 230 206 186 196 217 237 236 245 240 186 185 199 216 220 218 209 217 221 217 213 212 206 194 194 199 200 210 204 198 216 217
94 93 89 85 80 90 81 63 65 82 86 107 98 108 79 19 54 70 301 264 271 284 285 284 315 297 299 201 211 227 237 273 287 285 267 300 316 322 279 254 230 255 273 295 305 303 262 260 278 236 248 267 240 212 217 173 189 269 180 236 266 226 247 228 213 198 214 221 216 219 210 216 219 217 211 195 197 198 200 203 206 201 203 202 219
85 85 85 84 81 76 75 72 61 63 61 70 114 117 146 132 127 271 262 289 360 10 353 5 355 346 338 28 71 238 270 116 29 110 350 340 317 308 288 281 268 246 241 242 252 267 282 292 301 306 217 272 262 202 197 139 110 229 302 335 297 262 227 221 224 223 213 216 213 218 223 226 224 223 198 277 234 207 204 204 205 207 204 203 207
87 83 83 78 73 74 74 71 59 60 46 48 61 74 86 107 107 333 48 356 67 34 36 1 4 16 15 16 26 66 74 57 62 15 317 296 298 302 295 285 269 267 272 262 242 246 250 266 258 279 303 249 256 229 174 190 230 139 123 347 294 330 4 276 249 242 225 210 204 214 214 219 225 202 194 214 227 217 207 203 205 209 207 203 202
84 78 72 75 73 70 67 66 62 57 49 32 48 43 59 65 67 41 46 80 56 45 77 49 46 47 42 38 49 42 68 87 82 93 91 303 330 309 304 299 296 288 287 295 314 315 291 258 245 241 253 298 303 286 212 196 207 144 289 220 222 138 304 264 262 248 213 223 209 223 223 229 229 213 188 215 218 212 209 198 208 209 210 207 200
74 80 79 76 81 75 74 75 70 67 57 43 41 49 63 59 68 86 69 43 27 31 36 30 25 35 40 33 28 29 45 79 101 95 83 98 122 142 270 281 281 287 292 302 306 294 298 274 254 240 225 251 286 278 238 219 217 204 205 242 293 251 226 268 300 263 193 197 221 219 226 231 230 220 210 218 212 211 206 204 208 211 215 210 204
78 74 82 84 80 74 74 77 76 64 60 50 49 54 54 56 51 44 35 40 47 30 37 25 23 30 24 19 35 25 25 43 50 49 38 39 25 355 267 276 284 273 255 254 265 283 281 295 272 235 240 222 242 256 268 211 222 220 226 222 211 258 246 197 28 290 342 217 232 215 222 225 225 221 221 219 214 212 203 211 204 211 209 210 206
68 75 73 75 72 72 69 72 74 69 62 68 63 62 57 54 66 79 85 75 81 49 36 31 39 45 39 36 33 28 30 33 33 34 24 16 6 346 337 316 312 303 306 305 300 288 276 274 281 266 254 240 225 251 257 252 220 226 226 230 235 236 228 234 238 290 291 311 228 234 224 220 220 222 226 226 221 217 215 210 209 210 208 206 205
71 70 64 62 64 60 60 59 61 58 47 59 61 52 66 61 61 61 68 60 52 57 30 35 35 40 48 38 35 30 25 30 37 34 26 16 0 351 346 347 348 332 328 318 301 294 291 286 275 271 282 276 260 241 236 222 250 248 212 230 227 233 233 228 234 235 258 277 276 238 239 219 206 220 225 230 228 221 221 216 216 209 205 202 204
77 64 61 58 63 60 57 57 58 53 40 47 68 59 58 63 66 60 70 55 53 53 48 38 37 25 47 35 37 25 23 24 31 35 25 14 6 352 352 1 355 344 341 319 305 300 292 291 291 283 281 288 289 286 275 259 234 243 243 240 233 232 225 223 228 214 224 240 258 260 261 207 222 221 216 223 227 224 222 222 218 210 205 214 212
77 78 63 59 58 63 59 55 48 51 47 47 50 54 56 58 62 56 60 54 51 50 48 42 34 22 41 34 28 26 18 18 19 30 23 16 7 1 7 11 354 340 339 320 312 303 293 282 273 268 268 270 264 275 281 276 258 254 237 248 247 244 234 232 221 220 229 228 250 251 233 223 230 232 204 217 219 223 225 224 227 201 211 215 211
75 73 68 60 57 63 65 62 46 43 43 47 50 46 41 43 55 54 54 49 40 46 45 36 28 30 33 27 27 21 18 23 13 22 30 15 7 7 13 11 1 353 346 337 323 309 293 290 283 274 263 264 277 272 263 266 281 280 257 240 237 237 226 233 232 222 227 235 238 245 251 236 234 250 213 217 213 218 221 218 216 208 210 214 211